Погода в Бартошице

Польша     54°15′14″N   20°48′57″E
темп.,
°C
ветер,
м/с
пор.,
м/с
влажн.,
%
обл.,
%
осадки,
мм/ч
давл.,
гПа
погр.,
м
6 августа, пт
пт623:00+16всв51281100 0.2 1009437
02:00+14св51387100 0.2 1007422
05:00+13св61381100 0.0 1006577
08:00+12ссв71389100 0.8 1004556
11:00+12ссв71597100 6.3 1003611
14:00+12ссв71397100 12.3 1002816
17:00+12с61198100 3.6 1001749
20:00+13с51098100 8.9 1001567
7 августа, сб
сб723:00+13ссз5898100 6.7 1000418
02:00+14сз4799100 13.8 1000368
05:00+15зсз4898100 5.0 1001409
08:00+16зсз4997100 7.1 1002457
11:00+18зсз8118623 0.5 1004889
14:00+20зсз8106644 0.8 10061317
17:00+20зсз5865100 0.0 10071007
20:00+16сз22865 0.0 100815
8 августа, вс
вс823:00+14вюв11885 0.0 100911
02:00+13юв34922 0.0 101061
05:00+14ююв349176 0.0 100956
08:00+18юв4980100 0.0 1008266
11:00+21вюв4873100 0.0 1007754
14:00+18ююз3787100 0.4 1008264
17:00+21зюз71077100 0.1 10091113
20:00+17з5128566 0.2 1011510
9 августа, пн
пн923:00+15юз339419 0.0 101344
02:00+14юз34935 0.0 101458
05:00+14юз4108978 0.0 1016199
08:00+17юз59772 0.0 1016495
11:00+21зюз57625 0.0 10181353
14:00+21зюз676112 0.8 10181500
17:00+20з237053 1.3 1019213
20:00+17юв227732 1.3 101917
10 августа, вт
вт1023:00+17ю3576100 0.0 101997
02:00+15ююз3477100 0.0 101949
05:00+16ю4869100 0.0 1018160
08:00+18ююз41070100 0.1 1018396
11:00+21ююз455799 0.0 1018849
14:00+19ю476969 0.0 1017485
17:00+21ююз46645 0.3 10161143
20:00+17юз11824 3.3 101611